Mobile, AL

3:57 AM CDT on September 22, 2017 (GMT -0500)
Mobile Regional

Weather History for KMOB - November, 2012

Change the Weather History Date:

Thursday, November 1, 2012

  Actual Average Record
Temperature  
Mean Temperature 64 °F 64 °F  
Max Temperature 76 °F 75 °F 87 °F (1971)
Min Temperature 52 °F 53 °F 28 °F (1993)
Degree Days  
Heating Degree Days 1 4  
Month to date heating degree days 1 4  
Since 1 July heating degree days 56 59  
Cooling Degree Days 0 3  
Month to date cooling degree days 0 3  
Year to date cooling degree days 2682 2465  
Growing Degree Days 14 (Base 50)    
Moisture  
Dew Point 49 °F    
Average Humidity 62    
Maximum Humidity 93    
Minimum Humidity 31    
Precipitation  
Precipitation T in 0.16 in 2.13 in (1979)
Month to date precipitation T 0.16  
Year to date precipitation 64.19 56.12  
Snow  
Snow 0.00 in 0.00 in 0.00 in (2002)
Month to date snowfall 0.0  
Since 1 July snowfall 0.0  
Snow Depth -    
Sea Level Pressure  
Sea Level Pressure 30.02 in    
Wind  
Wind Speed 5 mph (NW)    
Max Wind Speed 9 mph    
Max Gust Speed 13 mph    
Visibility 10 miles    
Events Rain    
T = Trace of Precipitation, MM = Missing Value Source: NWS Daily Summary

Daily Weather History Graph

Daily Weather History Graph

Search for Another Location

Airport or City:

Trip Planner

Search our weather history database for the weather conditions in past years. The results will help you decide how hot, cold, wet, or windy it might be!

Date:

Astronomy

Nov. 01, 2012 Rise Set
Actual Time 7:08 AM CDT 6:04 PM CDT
Civil Twilight 6:43 AM CDT 6:29 PM CDT
Nautical Twilight 6:14 AM CDT 6:57 PM CDT
Astronomical Twilight 5:46 AM CDT 7:26 PM CDT
Moon 8:09 PM CDT (11/1) 9:32 AM CDT (11/1)
Length of Visible Light 11h 46m
Length of Day
10h 56m
Waning Gibbous, 93% of the Moon is Illuminated
Nov 1
Waning Gibbous
Nov 6
Last Quarter
Nov 13
New
Nov 20
First Quarter
Nov 28
Full

Hourly Weather History & Observations

Time (CDT) Temp. Dew Point Humidity Pressure Visibility Wind Dir Wind Speed Gust Speed Precip Events Conditions
12:56 AM 63.0 °F 57.9 °F 84% 29.98 in 10.0 mi WSW 4.6 mph - N/A   Overcast
1:56 AM 62.1 °F 57.9 °F 86% 29.99 in 8.0 mi West 4.6 mph - 0.00 in Rain Light Rain
2:56 AM 62.1 °F 57.9 °F 86% 29.98 in 10.0 mi West 3.5 mph - 0.00 in   Overcast
3:56 AM 60.1 °F 57.0 °F 90% 29.98 in 10.0 mi WNW 3.5 mph - N/A   Partly Cloudy
4:56 AM 57.9 °F 55.0 °F 90% 30.00 in 10.0 mi North 6.9 mph - N/A   Partly Cloudy
5:56 AM 55.0 °F 51.1 °F 86% 30.01 in 10.0 mi Calm Calm - N/A   Partly Cloudy
6:56 AM 52.0 °F 48.0 °F 86% 30.03 in 10.0 mi North 4.6 mph - N/A   Partly Cloudy
7:56 AM 55.0 °F 48.0 °F 77% 30.05 in 10.0 mi NNE 5.8 mph - N/A   Clear
8:56 AM 61.0 °F 46.9 °F 60% 30.07 in 10.0 mi NE 5.8 mph - N/A   Partly Cloudy
9:56 AM 64.9 °F 43.0 °F 45% 30.09 in 10.0 mi NNE 5.8 mph - N/A   Clear
10:56 AM 69.1 °F 42.1 °F 38% 30.09 in 10.0 mi NE 5.8 mph - N/A   Clear
11:56 AM 72.0 °F 42.1 °F 34% 30.07 in 10.0 mi Variable 5.8 mph - N/A   Partly Cloudy
12:56 PM 73.0 °F 42.1 °F 33% 30.04 in 10.0 mi Calm Calm - N/A   Partly Cloudy
1:56 PM 73.9 °F 42.1 °F 32% 30.02 in 10.0 mi Variable 5.8 mph - N/A   Clear
2:56 PM 75.9 °F 43.0 °F 31% 29.99 in 10.0 mi West 5.8 mph - N/A   Clear
3:56 PM 75.9 °F 44.1 °F 32% 29.99 in 10.0 mi NW 6.9 mph - N/A   Clear
4:56 PM 73.9 °F 45.0 °F 35% 29.99 in 10.0 mi NW 4.6 mph - N/A   Clear
5:56 PM 70.0 °F 46.9 °F 44% 30.01 in 10.0 mi WNW 3.5 mph - N/A   Clear
6:56 PM 64.0 °F 48.0 °F 56% 30.02 in 10.0 mi SSW 3.5 mph - N/A   Clear
7:56 PM 57.9 °F 48.9 °F 72% 30.04 in 10.0 mi Calm Calm - N/A   Clear
8:56 PM 60.1 °F 50.0 °F 69% 30.04 in 10.0 mi Calm Calm - N/A   Clear
9:56 PM 55.9 °F 50.0 °F 80% 30.06 in 10.0 mi Calm Calm - N/A   Clear
10:56 PM 53.1 °F 48.0 °F 83% 30.05 in 10.0 mi Calm Calm - N/A   Clear
11:56 PM 52.0 °F 48.9 °F 89% 30.04 in 10.0 mi Calm Calm - N/A   Clear